Location: Conjunto Santa Maria
(19.9513°S, 43.9599°W)
Time: 13:21:10
(UTC+00:00)

SJ-6B - Pass Details

Date: 21 January 2021
Orbit: 510 x 581 km, 97.6° (Epoch: 04 March)

Event Time Altitude Azimuth Distance (km) Brightness Sun altitude
Rises 22:57:49 0° 157° (SSE) 2,637 6.4 -17.2°
Reaches altitude 10° 23:00:03 10° 148° (SSE) 1,743 5.3 -17.6°
Enters shadow 23:02:37 31° 111° (ESE) 930 3.6 -18.2°
